Location: Gesvres
(49.0440°N, 2.8518°E)
Time: 00:04:21
(UTC+00:00)

IRIDIUM 106 - Pass Details

Date: 28 January 2023
Orbit: 776 x 779 km, 86.4° (Epoch: 01 April)

Event Time Altitude Azimuth Distance (km) Brightness Sun altitude
Rises 19:01:00 0° 357° (N) 3,278 7.6 -23.2°
Reaches altitude 10° 19:03:22 10° 359° (N) 2,346 6.8 -23.6°
Maximum altitude 19:08:38 74° 85° (E) 816 4.2 -24.5°
Enters shadow 19:10:18 44° 159° (SSE) 1,074 4.8 -24.8°
Exits shadow 19:15:21 - 172° (S) 2,920 7.2 -25.6°
Sets 19:16:11 0° 173° (S) 3,251 7.5 -25.7°
